Regional Weather Roundup
Issued by NWS

Home | Current Version | Previous Version | Text Only | Print | Product List | Glossary Off
Versions: 1 2 3 4 5 6 7 8 9 10 11 12 13 14 15 16 17 18 19 20 21 22 23 24 25 26 27 28 29 30 31 32 33 34 35 36 37 38 39 40 41 42 43 44 45 46 47 48 49 50

000
ASUS45 KTFX 211804
RWRMT
MONTANA HOURLY WEATHER ROUNDUP
NATIONAL WEATHER SERVICE GREAT FALLS MT
1104 AM MST FRI NOV 21 2014

NOTE: "FAIR" INDICATES FEW OR NO CLOUDS BELOW 12000 FEET WITH NO
SIGNIFICANT WEATHER AND/OR OBSTRUCTIONS TO VISIBILITY.

* THESE STATIONS ARE NOT UNDER NWS QUALITY CONTROL. THEY DO NOT
   REPORT WEATHER SUCH AS PRECIPITATION OR FOG.

MTZ001>007-043-211900-
WEST OF THE DIVIDE
CITY           SKY/WX    TMP DP  RH WIND       PRES   REMARKS
KALISPELL      FOG       30  28  92 CALM      29.87F
MISSOULA       HAZE      30  27  89 CALM      29.93F
BUTTE          PTCLDY    37  25  62 CALM      29.90F
MULLAN PASS    FOG       32  30  92 SW6       29.84F VSB M1/4 WCI  26
* ESSEX        N/A       32  31  96 N/A        N/A
* LOOKOUT PASS N/A       36  32  85 SE8        N/A   WCI  30
* POLSON       N/A       34  31  89 SE1        N/A
* RONAN APT    PTSUNNY   30  28  92 N/A        N/A
* SEELEY LAKE  N/A       31  28  89 N1         N/A
* THOMP F APT  PTCLDY    29  25  85 E3         N/A
* YAAK HILL    N/A       30  27  89 NE1        N/A
$$

MTZ008-052>055-211900-
SOUTHWEST MONTANA
CITY           SKY/WX    TMP DP  RH WIND       PRES   REMARKS
BOZEMAN        PTSUNNY   30  25  82 CALM      29.93S
DILLON         PTSUNNY   34  23  64 SW12      29.93F WCI  25
* W YELLOWSTON PTSUNNY   31  26  82 S2G7       N/A
* ENNIS APT    CLOUDY    32  25  75 S13        N/A   WCI  22
* THREE FORKS  PTCLDY    25  25 100 N/A        N/A
* BOULDER HILL N/A       28  19  69 S13        N/A   WCI  17
* MONIDA PASS  N/A       25  25 100 SE7        N/A   WCI  17
* RAYNOLDS PAS N/A       29  15  56 S12        N/A   WCI  19
* WHITEHALL    N/A       32  22  67 NE3G8      N/A
* WISE RIVER   N/A       28  20  72 SW3        N/A
$$

MTZ009>010-012-014-046-048-049-054-211900-
EAST SLOPES AND CENTRAL MONTANA
CITY           SKY/WX    TMP DP  RH WIND       PRES   REMARKS
CUT BANK       SUNNY     46  30  54 W26       29.72F
GREAT FALLS    PTCLDY    46  28  50 SW21G28   29.77F
HELENA         PTSUNNY   39  27  62 N6        29.88F WCI  35
MALMSTROM AFB  PTCLDY    46  30  54 SW23G37   29.79F
* DEARBORN     N/A       46  26  46 S15G26     N/A
* EAST GLACIER N/A       35  30  82 W17G22     N/A   WCI  25
* MONARCH      N/A       38  20  48 SW21G28    N/A   WCI  28
* PENDROY      N/A       43  26  51 S4         N/A
* ROGERS PASS  N/A       35  25  67 SE10G23    N/A   WCI  27
* SAINT MARY   N/A       37  30  76 S9G20      N/A   WCI  30
* SWEET GRASS  N/A       39  30  70 W22G31     N/A   WCI  29
$$

MTZ011-013-016-021-035-040-045-047-050-051-211900-
NORTH CENTRAL MONTANA
CITY           SKY/WX    TMP DP  RH WIND       PRES   REMARKS
HAVRE          PTCLDY    43  30  60 SW14      29.70F
LEWISTOWN      PTCLDY    46  27  48 W12       29.79S
* N BAR RANCH  SUNNY     46  21  37 NW9       29.80R
* CHESTER      N/A       38  29  70 SW6G12     N/A   WCI  33
* DENTON       N/A       41  25  53 W16G21     N/A
* GEYSER       N/A       46  23  40 SW26G34    N/A
* JUDITH GAP   N/A       42  24  49 VRB3G16    N/A
* LOMA         N/A       44  29  56 SW19G29    N/A
$$

MTZ017>020-022>027-061-062-211900-
NORTHEAST MONTANA
CITY           SKY/WX    TMP DP  RH WIND       PRES   REMARKS
GLASGOW        PTCLDY    39  28  65 W13       29.69S WCI  31
GLENDIVE       SUNNY     41  28  60 SW7       29.76R
JORDAN         PTSUNNY   39  28  65 NW5       29.75S WCI  35
SIDNEY         SUNNY     36  27  70 S9        29.71F WCI  29
WOLF POINT     SUNNY     39  27  62 W13       29.69S WCI  31
* BEAVER HILL  N/A       36  25  64 SW18       N/A   WCI  26
* CIRCLE       N/A       37  28  70 SW6G12     N/A   WCI  32
* LINDSAY DVD  N/A       40  25  55 SW20G31    N/A   WCI  30
* NAVAJO       N/A       37  28  70 W26G35     N/A   WCI  25
* SACO         N/A       39  28  65 SW17       N/A   WCI  30
$$

MTZ028>042-056>058-211900-
SOUTHCENTRAL AND SOUTHEAST MONTANA
CITY           SKY/WX    TMP DP  RH WIND       PRES   REMARKS
BAKER          SUNNY     41  27  58 W14       29.78F
BILLINGS       PTSUNNY   39  21  48 SW14      29.86S WCI  31
LIVINGSTON     PTSUNNY   45  25  45 W26G43    29.87F
MILES CITY     SUNNY     43  28  56 W14       29.79F
* LAUREL APT   PTSUNNY   32  18  56 SW9        N/A   WCI  24
* HYSHAM       N/A       38  20  48 W9G14      N/A   WCI  32
* LAME DEER    N/A       40  23  51 W9G16      N/A   WCI  34
* REED POINT   N/A       46  26  46 W12G19     N/A
* ROSCOE HILL  N/A       41  14  33 E6         N/A
$$

REGIONAL REPORTS...DAKOTAS
CITY           SKY/WX    TMP DP  RH WIND       PRES   REMARKS
WILLISTON      SUNNY     41  27  58 SW10      29.65F
DICKINSON      SUNNY     39  27  62 W15       29.70F WCI  31
BEACH          SUNNY     37  28  70 SW14      29.75F WCI  28
CROSBY         SUNNY     39  28  65 W23G30    29.57R WCI  28
BISMARCK       PTCLDY    34  21  59 CALM      29.75F
GRAND FORKS    PTSUNNY   30  19  64 S23G30    29.73F WCI  17
FARGO          SUNNY     30  19  64 S24G30    29.81F WCI  16
BUFFALO SD     PTCLDY    46  27  48 W16       29.73F
RAPID CITY     PTSUNNY   48  30  50 CALM      29.83S
$$

REGIONAL REPORTS...WYOMING/IDAHO/WASHINGTON
CITY           SKY/WX    TMP DP  RH WIND       PRES   REMARKS
GILLETTE       SUNNY     43  27  53 W7        29.85S
SHERIDAN       SUNNY     46  27  48 CALM      29.83F
CODY           PTCLDY    45  21  38 W14G22    29.88S
YELLOWSTONE LA SUNNY     28  21  75 VRB3      30.01S
SALMON         CLOUDY    25  18  75 CALM      30.03S
MULLAN PASS    FOG       32  30  92 SW6       29.84S VSB M1/4 WCI  26
SAND POINT     N/A       34  34 100 CALM      29.89F VSB 2 1/2
SPOKANE        FOG       36  34  92 CALM      29.87F

$$



USA.gov is the U.S. government's official web portal to all federal, state and local government web resources and services.